Location: St. Louis
(38.6270°N, 90.1994°W)
Time: 01:32:21
(UTC-06:00)

Vanguard 2 - Pass Details

Date: 30 November 2021
Orbit: 553 x 2936 km, 32.9° (Epoch: 16 January)

Event Time Altitude Azimuth Distance (km) Brightness Sun altitude
Rises 15:00:16 0° 249° (WSW) 3,222 12.0 14.9°
Reaches altitude 10° 15:02:20 10° 244° (WSW) 2,481 11.9 14.6°
Maximum altitude 15:08:04 54° 168° (SSE) 1,385 9.3 13.8°
Drops below altitude 10° 15:17:33 10° 95° (E) 4,035 10.8 12.4°
Sets 15:21:50 0° 92° (E) 5,433 11.4 11.8°
